CLX4462 UAAA-LHBP

Flight info

Callsign CLX4462
Flight time N/A
Altitude 34000
Route IZIMA Z370 RISAS L855 KZO M610 DIVNO N161 GASBI/N0493F360 N161 LEYLA N644 TETRO M10 SARPI UM10 GOKPA UL746 ODERO DCT LUGEB DCT BUKEL DCT IRLOX DCT BUDOP DCT KEZAL
Aircraft B748/H-SDE3FGHIM1M2RWXY/LB1

Departure

Time 2026-05-04 11:27
Airport Almaty International Airport (UAAA)

Arrival

Time N/A
Airport Budapest Liszt Ferenc International Airport (LHBP)
Time Latitude Longitude Altitude Speed Heading
2026-05-04 11:01 43.35117 77.01857 2238 ft 0 kts
2026-05-04 11:12 43.35033 77.01828 2238 ft 4 kts 85°
2026-05-04 11:12 43.35033 77.01793 2238 ft 4 kts 93°
2026-05-04 11:12 43.35035 77.01756 2238 ft 4 kts 93°
2026-05-04 11:12 43.35035 77.01747 2238 ft 0 kts 93°
2026-05-04 11:19 43.35018 77.02148 2238 ft 14 kts 93°
2026-05-04 11:19 43.34983 77.02246 2238 ft 12 kts 135°
2026-05-04 11:19 43.34917 77.02331 2238 ft 14 kts 137°
2026-05-04 11:19 43.34841 77.02424 2238 ft 15 kts 138°
2026-05-04 11:20 43.34775 77.02527 2239 ft 14 kts 110°
2026-05-04 11:20 43.34800 77.02647 2237 ft 15 kts 54°
2026-05-04 11:20 43.34850 77.02742 2233 ft 14 kts 55°
2026-05-04 11:20 43.34914 77.02869 2230 ft 18 kts 55°
2026-05-04 11:22 43.35746 77.04549 2226 ft 41 kts 56°
2026-05-04 11:22 43.35912 77.04885 2232 ft 43 kts 56°
2026-05-04 11:23 43.36075 77.05216 2232 ft 44 kts 56°
2026-05-04 11:23 43.36251 77.05568 2238 ft 45 kts 53°
2026-05-04 11:24 43.36272 77.06084 2240 ft 17 kts 236°
2026-05-04 11:25 43.36093 77.05719 2243 ft 76 kts 235°
2026-05-04 11:25 43.35692 77.04909 2239 ft 126 kts 235°
2026-05-04 11:25 43.35122 77.03759 2239 ft 164 kts 236°
2026-05-04 11:26 43.33627 77.00818 2525 ft 197 kts 230°
2026-05-04 11:27 43.31048 76.87620 4564 ft 252 kts 266°
2026-05-04 11:28 43.31007 76.85205 4712 ft 259 kts 273°
2026-05-04 11:28 43.31100 76.82680 4896 ft 266 kts 275°
2026-05-04 11:28 43.31222 76.80158 5451 ft 269 kts 275°
2026-05-04 11:28 43.31346 76.77579 6057 ft 273 kts 275°
2026-05-04 11:29 43.31470 76.74939 6660 ft 276 kts 275°
2026-05-04 11:29 43.31593 76.72309 7216 ft 279 kts 275°
2026-05-04 11:29 43.31719 76.69625 7776 ft 282 kts 275°
2026-05-04 11:29 43.31846 76.66925 8329 ft 285 kts 275°